SES-14

Last updated on Thu Oct 30 2025 00:02:51 GMT+0000 (Coordinated Universal Time)

1 43175U 18012B 25302.46163100 -.00000269 00000+0 00000+0 0 9991 2 43175 0.0355 48.6668 0000932 161.8333 306.2625 1.00270250 4715
UTC large
Height (km)
Speed (km/s)
/
Latitude / Longitude
Inclination (degrees)
Orbital Period (minutes)
Azimuth
Elevation
Range (km)
Doppler Factor

Next 0 passes for location: London (51.5072 / 0.1276)

Sorry there are no passes over London.